DateTimeUTC,F1_A11,F1_S11,BsB_S11,BsG_S11,BsR_S11,BbsB_S11,BbsG_S11,BbsR_S11,BaB_A11,BaG_A11,BaR_A11,Tu_S11,T_S11,Uu_S11,U_S11,P_S11,T1_A11
2021-06-25T18:00:00Z,00000200,20000000,,,,,,,-000.06,-000.31,0000.31,18.4,24.9,07.4,05.0,0664.4,31.1
2021-06-25T18:01:00Z,00000200,20000000,,,,,,,0000.17,0000.20,-000.29,18.4,24.9,07.4,05.0,0664.4,31.1
2021-06-25T18:02:00Z,00000200,20000000,,,,,,,-000.12,0000.03,0000.05,18.4,24.9,07.4,05.0,0664.4,31.1
2021-06-25T18:03:00Z,00000200,60000000,,,,,,,0000.23,0000.13,0000.46,18.4,24.9,07.4,05.0,0664.4,31.1
2021-06-25T18:04:00Z,00000200,40000000,0001.99,0001.17,0000.41,0000.36,-000.15,0000.23,0000.21,0000.31,0000.33,18.4,24.7,07.2,04.9,0665.1,31.1
2021-06-25T18:05:00Z,00000200,00000000,0001.85,0000.73,0000.68,0000.35,0000.09,0000.35,0000.72,0000.46,0000.11,18.5,24.7,07.4,05.1,0665.5,31.1
2021-06-25T18:06:00Z,00000200,00000000,0001.87,0001.03,0000.38,0000.23,-000.23,-000.20,0000.19,0000.56,0000.10,18.5,24.7,07.5,05.1,0665.5,31.1
2021-06-25T18:07:00Z,00000200,00000000,0001.68,0000.93,0000.45,0000.25,0000.26,0000.02,0000.12,0000.17,0000.16,18.5,24.7,07.5,05.1,0665.5,31.1
2021-06-25T18:08:00Z,00000200,00000000,0001.35,0000.75,0000.43,0000.05,0000.41,0000.10,0000.32,0000.16,0000.02,18.6,24.7,07.2,05.0,0665.3,31.1
2021-06-25T18:09:00Z,00000200,00000000,0002.52,0000.99,0000.33,0000.12,0000.52,0000.30,0000.37,0000.41,0000.26,18.6,24.7,07.1,04.9,0665.4,31.1
2021-06-25T18:10:00Z,00000200,00000000,0001.77,0000.90,0000.42,0000.49,0000.38,0000.24,0000.67,0000.26,0000.43,18.6,24.7,07.1,04.9,0665.5,31.1
2021-06-25T18:11:00Z,00000200,00000000,0001.95,0001.24,0000.10,0000.98,0000.32,0000.14,-000.27,0000.15,0000.10,18.5,24.7,07.1,04.9,0665.5,31.1
2021-06-25T18:12:00Z,00000200,00000000,0001.78,0000.95,0000.47,0000.29,0000.41,0000.14,0000.46,0000.22,0000.36,18.5,24.7,07.2,04.9,0665.5,31.1
2021-06-25T18:13:00Z,00000200,00000000,0001.16,0000.87,0000.46,0000.62,0000.23,0000.27,0000.36,0000.29,0000.22,18.5,24.7,07.2,05.0,0665.3,31.1
2021-06-25T18:14:00Z,00000200,00000000,0001.38,0001.08,0000.45,0000.39,0000.62,0000.04,0000.52,0000.54,0000.34,18.5,24.7,07.3,05.0,0665.6,31.1
2021-06-25T18:15:00Z,00000200,00000000,0001.56,0001.25,0000.71,0000.59,0000.21,0000.18,0000.22,0000.15,0000.12,18.5,24.6,07.2,05.0,0665.7,31.1
2021-06-25T18:16:00Z,00000200,00000000,0001.52,0000.61,0000.38,0000.75,0000.25,0000.04,0000.47,0000.07,0000.32,18.4,24.6,07.3,05.0,0665.7,31.1
2021-06-25T18:17:00Z,00000200,00000000,0001.19,0000.56,0000.58,0000.36,0000.13,0000.65,-000.09,0000.43,0000.03,18.4,24.6,07.2,04.9,0665.5,31.1
2021-06-25T18:18:00Z,00000200,00000000,0001.47,0001.12,0000.43,0000.51,0000.34,-000.10,0000.72,0000.29,0000.17,18.4,24.6,07.1,04.9,0665.7,31.1
2021-06-25T18:19:00Z,00000200,00000000,0001.15,0001.03,0000.46,-000.09,0000.32,-000.25,0000.17,0000.51,0000.19,18.5,24.6,07.2,05.0,0665.7,31.1
2021-06-25T18:20:00Z,00000200,00000000,0001.45,0000.84,0000.78,0000.18,0000.14,0000.31,0000.69,0000.24,0000.31,18.5,24.6,07.1,04.9,0665.6,31.1
2021-06-25T18:21:00Z,00000200,00000000,0001.57,0000.91,0000.41,0000.32,0000.28,-000.08,0000.09,0000.17,0000.45,18.5,24.7,07.1,04.9,0665.7,31.1
2021-06-25T18:22:00Z,00000200,00000000,0001.32,0001.13,0000.39,0000.81,0000.13,0000.13,0000.44,0000.59,0000.06,18.6,24.7,07.1,04.9,0665.8,31.1
2021-06-25T18:23:00Z,00000200,00000000,0001.34,0000.54,0000.36,-000.28,0000.14,0000.18,0000.30,0000.10,0000.09,18.6,24.7,07.0,04.8,0665.7,31.1
2021-06-25T18:24:00Z,00000200,00000000,0001.42,0001.30,0000.18,0000.45,0000.09,-000.07,0000.38,0000.54,0000.32,18.6,24.7,07.1,04.9,0665.8,31.1
2021-06-25T18:25:00Z,00000200,00000000,0002.25,0001.11,0000.90,0000.09,0000.30,0000.22,0000.20,0000.30,0000.14,18.6,24.7,07.3,05.0,0665.8,31.1
2021-06-25T18:26:00Z,00000200,00000000,0001.63,0001.29,0000.08,0000.18,0000.16,0000.04,0000.39,0000.16,0000.35,18.5,24.7,07.2,05.0,0665.8,31.1
2021-06-25T18:27:00Z,00000200,00000000,0001.40,0001.15,0000.33,0000.33,0000.14,-000.01,0000.15,0000.42,0000.39,18.5,24.7,07.3,05.0,0665.9,31.1
2021-06-25T18:28:00Z,00000200,00000000,0002.07,0000.93,0000.52,0000.35,0000.46,-000.01,0000.52,0000.37,0000.26,18.6,24.7,07.2,05.0,0666.0,31.1
2021-06-25T18:29:00Z,00000200,00000000,0001.79,0001.22,0000.62,-000.34,0000.27,0000.15,0000.47,0000.13,-000.03,18.5,24.6,07.5,05.1,0666.0,31.1
2021-06-25T18:30:00Z,00000200,00000000,0001.77,0000.87,0000.49,-000.04,0000.17,0000.15,0000.18,0000.29,0000.30,18.5,24.6,07.3,05.0,0665.8,31.1
2021-06-25T18:31:00Z,00000200,00000000,0001.71,0000.57,0000.57,0000.24,0000.25,0000.26,0000.55,0000.50,0000.27,18.5,24.6,07.1,04.9,0665.8,31.1
2021-06-25T18:32:00Z,00000200,00000000,0002.04,0000.74,0000.41,0000.11,0000.57,0000.07,0000.33,-000.07,0000.54,18.5,24.6,07.1,04.9,0665.9,31.1
2021-06-25T18:33:00Z,00000200,00000000,0002.11,0001.04,0000.68,0000.18,0000.09,0000.31,0000.01,0000.36,-000.19,18.5,24.6,06.8,04.7,0665.6,31.1
2021-06-25T18:34:00Z,00000200,00000000,0001.95,0000.97,0000.53,0000.64,-000.10,0000.03,0000.46,0000.67,0000.30,18.5,24.6,06.9,04.7,0665.8,31.1
2021-06-25T18:35:00Z,00000200,00000000,0002.27,0000.96,0000.35,0000.43,0000.45,0000.36,0000.38,0000.27,0000.46,18.6,24.7,07.1,04.9,0665.9,31.1
2021-06-25T18:36:00Z,00000200,00000000,0001.95,0001.24,0000.08,0000.23,0000.13,-000.02,0000.55,0000.28,0000.14,18.7,24.7,07.1,04.9,0666.1,31.1
2021-06-25T18:37:00Z,00000200,00000000,0001.61,0001.52,0000.49,0000.04,0000.43,0000.03,0000.34,0000.53,0000.53,18.7,24.8,07.1,04.9,0666.1,31.1
2021-06-25T18:38:00Z,00000200,00000000,0002.25,0001.15,0000.36,0000.07,0000.28,0000.16,0000.33,-000.01,0000.13,18.7,24.8,07.1,04.9,0666.1,31.1
2021-06-25T18:39:00Z,00000200,00000000,0001.79,0000.97,0000.38,0000.36,0000.30,0000.05,0000.34,0000.48,-000.00,18.7,24.8,07.0,04.9,0665.9,31.1
2021-06-25T18:40:00Z,00000200,00000000,0001.32,0001.08,0000.86,-000.42,0000.43,0000.21,0000.19,0000.20,0000.34,18.7,24.8,07.0,04.8,0666.1,31.1
2021-06-25T18:41:00Z,00000200,00000000,0001.34,0001.12,0000.79,0000.19,0000.36,0000.02,0000.04,0000.44,-000.04,18.7,24.7,07.0,04.8,0666.1,31.1
2021-06-25T18:42:00Z,00000200,00000000,0001.03,0001.25,0000.71,0000.01,0000.33,0000.28,0000.57,0000.00,0000.25,18.7,24.7,06.9,04.8,0666.1,31.1
2021-06-25T18:43:00Z,00000200,00000000,0001.63,0000.94,0000.79,-000.04,0000.20,0000.20,0000.53,0000.63,0000.42,18.7,24.7,06.9,04.8,0666.2,31.1
2021-06-25T18:44:00Z,00000200,00000000,0001.75,0001.22,0000.36,0000.78,0000.43,0000.30,-000.12,0000.22,-000.06,18.6,24.7,07.0,04.9,0666.2,31.1
2021-06-25T18:45:00Z,00000200,00000000,0001.97,0001.16,0000.80,0000.63,-000.09,0000.21,0000.74,0000.25,0000.49,18.6,24.7,07.0,04.8,0666.2,31.1
2021-06-25T18:46:00Z,00000200,00000000,0002.08,0001.15,0000.56,0000.46,0000.29,0000.01,-000.01,0000.07,0000.03,18.6,24.7,06.9,04.7,0665.9,31.1
2021-06-25T18:47:00Z,00000200,00000000,0001.79,0001.18,0000.63,0000.12,0000.20,0000.20,0000.70,0000.17,0000.46,18.6,24.7,06.9,04.7,0666.1,31.1
2021-06-25T18:48:00Z,00000200,00000000,0001.99,0000.97,0000.48,0000.39,0000.28,0000.21,0000.19,0000.48,0000.33,18.6,24.7,07.0,04.8,0666.0,31.1
2021-06-25T18:49:00Z,00000200,00000000,0001.79,0001.19,0000.34,0000.44,0000.31,-000.11,0000.14,0000.33,0000.38,18.6,24.7,07.1,04.9,0666.1,31.1
2021-06-25T18:50:00Z,00000200,00000000,0001.16,0000.92,0000.50,0000.53,0000.40,0000.03,0000.59,0000.44,-000.27,18.7,24.7,07.0,04.8,0666.1,31.1
2021-06-25T18:51:00Z,00000200,00000000,0002.13,0000.94,0000.66,0000.33,0000.29,0000.16,0000.44,0000.33,0000.67,18.7,24.8,06.9,04.8,0666.2,31.1
2021-06-25T18:52:00Z,00000200,00000000,0000.92,0000.93,0000.60,-000.22,0000.35,-000.11,0000.23,-000.13,-000.06,18.7,24.8,06.9,04.8,0666.3,31.1
2021-06-25T18:53:00Z,00000200,00000000,0001.93,0001.24,0000.59,0000.22,0000.14,-000.01,0000.17,0000.31,0000.20,18.7,24.8,06.9,04.8,0666.3,31.1
2021-06-25T18:54:00Z,00000200,00000000,0001.98,0000.95,0000.64,0000.47,0000.18,0000.01,0000.22,0000.41,0000.17,18.7,24.7,06.7,04.6,0666.3,31.1
2021-06-25T18:55:00Z,00000200,00000000,0001.74,0001.07,0000.32,0000.37,0000.37,0000.17,0000.37,0000.28,0000.27,18.7,24.7,06.8,04.7,0666.3,31.1
2021-06-25T18:56:00Z,00000200,00000000,0001.41,0001.02,0000.71,-000.14,0000.30,0000.37,0000.20,0000.44,0000.14,18.6,24.7,06.8,04.7,0666.3,31.1
2021-06-25T18:57:00Z,00000200,40000000,,,,,,,0000.43,0000.07,0000.50,18.6,24.7,06.7,04.6,0666.5,31.1
2021-06-25T18:58:00Z,00000200,60000000,,,,,,,-000.03,0000.22,-000.31,18.4,24.8,07.3,04.9,0665.5,31.1
2021-06-25T18:59:00Z,00000200,20000000,,,,,,,-000.11,-000.10,0000.26,18.4,24.9,07.1,04.8,0665.4,31.1
